Location: Newark
(46.7000°N, 60.6000°W)
Time: 12:28:53
(UTC+00:00)

A-11 Canister half - Pass Details

Date: 01 November 2020
Orbit: 1516 x 1684 km, 47.2° (Epoch: 04 December)

Event Time Altitude Azimuth Distance (km) Brightness Sun altitude
Rises 22:58:01 0° 227° (SW) 4,925 12.3 -23.0°
Reaches altitude 10° 23:01:15 10° 223° (SW) 3,941 11.6 -23.6°
Maximum altitude 23:11:05 58° 148° (SSE) 1,902 9.2 -25.3°
Enters shadow 23:14:19 43° 96° (E) 2,213 9.3 -25.8°
